EW2919 Weather Reports


Display with metric or nautical units.
time (UTC)temp
F
wind
direction
speed
MPH
gust
MPH
rain 1hr
in
rain 24hr
in
rain mn
in
humidity
%
barometer
mb
20260510173007 83 333 1.0 3.0 0.00 0.00 0.00 34 1016.2
20260510171515 83 181 1.0 4.0 0.00 0.00 0.00 31 1016.2
20260510170018 82 292 1.0 3.0 0.00 0.00 0.00 36 1016.3
20260510164523 82 268 1.0 2.0 0.00 0.00 0.00 33 1016.4
20260510163023 82 277 1.0 2.0 0.00 0.00 0.00 33 1016.5
20260510161509 81 53 0.0 3.0 0.00 0.00 0.00 37 1016.7
20260510160021 80 55 1.0 3.0 0.00 0.00 0.00 43 1016.8
20260510154520 80 267 1.0 3.0 0.00 0.00 0.00 42 1016.7
20260510153022 78 325 0.0 4.0 0.00 0.00 0.00 41 1016.8
20260510151526 78 327 0.0 3.0 0.00 0.00 0.00 43 1016.8
20260510150005 77 279 2.0 2.0 0.00 0.00 0.00 49 1016.8
20260510143004 74 56 1.0 4.0 0.00 0.00 0.00 57 1016.9
20260510141505 71 339 1.0 3.0 0.00 0.00 0.00 60 1016.8
20260510140005 68 149 0.0 3.0 0.00 0.00 0.00 69 1016.9
20260510134505 66 309 0.0 3.0 0.00 0.00 0.00 71 1016.7
20260510130013 60 297 1.0 4.0 0.00 0.00 0.00 96 1016.7
20260510124508 59 9 0.0 2.0 0.00 0.00 0.00 96 1016.6
20260510114509 55 138 0.0 2.0 0.00 0.00 0.00 95 1015.5
20260510110015 54 351 0.0 0.0 0.00 0.00 0.00 94 1014.9
20260510103009 54 241 0.0 2.0 0.00 0.00 0.00 94 1014.4
20260510101508 54 343 0.0 2.0 0.00 0.00 0.00 94 1014.2
20260510100007 54 286 0.0 0.0 0.00 0.00 0.00 93 1014.1
20260510094527 55 294 0.0 1.0 0.00 0.00 0.00 94 1013.9
20260510093013 55 294 0.0 0.0 0.00 0.00 0.00 93 1013.9
20260510091512 55 294 0.0 0.0 0.00 0.00 0.00 93 1013.8
20260510090013 56 294 0.0 0.0 0.00 0.00 0.00 93 1013.7
20260510084511 56 294 0.0 0.0 0.00 0.00 0.00 93 1013.5
20260510083008 56 294 0.0 0.0 0.00 0.00 0.00 93 1013.4
20260510081515 57 294 0.0 0.0 0.00 0.00 0.00 93 1013.2
20260510080013 57 294 0.0 0.0 0.00 0.00 0.00 93 1013.1
20260510074525 57 294 0.0 0.0 0.00 0.00 0.00 93 1013.0
20260510073009 58 294 0.0 0.0 0.00 0.00 0.00 93 1013.1
20260510071515 58 294 0.0 0.0 0.00 0.00 0.00 92 1012.9
20260510070028 58 294 0.0 0.0 0.00 0.00 0.00 92 1012.8
20260510064521 59 294 0.0 0.0 0.00 0.00 0.00 92 1012.9
20260510063026 59 294 0.0 1.0 0.00 0.00 0.00 92 1012.9
20260510061512 59 294 0.0 2.0 0.00 0.00 0.00 91 1013.0
20260510060018 59 294 0.0 2.0 0.00 0.00 0.00 91 1012.9
20260510054504 60 294 0.0 0.0 0.00 0.00 0.00 91 1012.8
20260510053033 60 294 0.0 0.0 0.00 0.00 0.00 90 1013.2
20260510051513 60 294 0.0 0.0 0.00 0.00 0.00 89 1013.3
20260510050011 61 294 0.0 2.0 0.00 0.00 0.00 88 1013.2
20260510043005 62 294 0.0 1.0 0.00 0.00 0.00 86 1013.2
20260510041521 62 294 0.0 2.0 0.00 0.00 0.00 85 1013.1
20260510040026 63 303 0.0 2.0 0.00 0.00 0.00 85 1012.9
20260510034511 63 216 0.0 2.0 0.00 0.00 0.00 84 1013.1
20260510033004 63 255 0.0 2.0 0.00 0.00 0.00 84 1013.2
20260510031511 63 279 0.0 2.0 0.00 0.00 0.00 84 1013.1
20260510030013 63 279 0.0 2.0 0.00 0.00 0.00 83 1013.0
20260510024516 64 281 0.0 2.0 0.00 0.00 0.00 83 1013.0
20260510023014 64 196 0.0 2.0 0.00 0.00 0.00 82 1013.0
20260510021520 64 244 0.0 2.0 0.00 0.00 0.00 82 1012.8
20260510020012 64 282 0.0 2.0 0.00 0.00 0.00 81 1012.8
20260510014513 64 282 0.0 2.0 0.00 0.00 0.00 80 1012.7
20260510013022 65 173 0.0 2.0 0.00 0.00 0.00 80 1012.4
20260510011509 65 275 0.0 2.0 0.00 0.00 0.00 78 1012.0
20260510010008 66 147 0.0 2.0 0.00 0.00 0.00 76 1011.8
20260510004514 67 182 0.0 2.0 0.00 0.00 0.00 75 1011.6
20260510003019 68 184 0.0 2.0 0.00 0.00 0.00 74 1011.3
20260510001515 69 105 0.0 2.0 0.00 0.00 0.00 71 1011.3
20260509234512 70 144 0.0 4.0 0.00 0.00 0.00 68 1011.1
20260509233015 70 148 0.0 6.0 0.00 0.00 0.00 68 1010.7
20260509231518 71 271 0.0 3.0 0.00 0.00 0.00 65 1010.6
20260509230008 72 197 0.0 2.0 0.00 0.00 0.00 65 1010.4
20260509224509 72 302 1.0 3.0 0.00 0.00 0.00 62 1010.2
20260509223016 73 103 0.0 4.0 0.00 0.00 0.00 61 1010.3
20260509221515 74 309 1.0 3.0 0.00 0.00 0.00 59 1010.3
20260509220020 74 155 0.0 3.0 0.00 0.00 0.00 58 1010.3
20260509214508 75 266 0.0 4.0 0.00 0.00 0.00 57 1010.3
20260509213024 76 268 2.0 8.0 0.00 0.00 0.00 57 1010.2
20260509211515 76 250 1.0 6.0 0.00 0.00 0.00 57 1010.2
20260509210017 75 275 1.0 7.0 0.00 0.00 0.00 60 1010.1
20260509204518 75 123 1.0 9.0 0.00 0.00 0.00 59 1010.1
20260509203013 76 216 1.0 9.0 0.00 0.00 0.00 58 1010.3
20260509201515 76 180 1.0 6.0 0.00 0.00 0.00 59 1010.4
20260509200018 75 226 2.0 9.0 0.00 0.00 0.00 58 1010.4
20260509194520 74 266 1.0 6.0 0.00 0.00 0.00 61 1010.4
20260509193027 73 284 1.0 7.0 0.00 0.00 0.00 64 1010.8
20260509191513 75 264 1.0 8.0 0.00 0.00 0.00 60 1010.8
20260509190019 73 254 1.0 4.0 0.00 0.00 0.00 64 1010.8
20260509184532 73 140 2.0 9.0 0.00 0.00 0.00 65 1010.9
20260509183027 72 217 1.0 4.0 0.00 0.00 0.00 67 1011.1
20260509181510 70 264 2.0 8.0 0.00 0.00 0.00 64 1011.4
20260509180017 70 236 0.0 4.0 0.00 0.00 0.00 66 1011.5
20260509174524 71 276 1.0 5.0 0.00 0.00 0.00 65 1011.4